Simultaneous Nadir Overpasses (SNOs) Predictions

Prediction of SNOs between METOP-A and TERRA Satellite Orbit:

Table of predicted SNOs for the next 14.0 days since TLE Epoch: 6/8/2017
Index Date (METOP-A) Time (METOP-A) Lat,Lon (METOP-A) SZA (METOP-A ) Date (TERRA) Time (TERRA) Lat,Lon (TERRA) SZA (TERRA ) Distance(km) Time Diff (sec)
1 06/11/2017 08:25:30 -81.34, -78.33 118.74 06/11/2017 08:25:56 -81.34, -78.38 118.73 0.84 26
2 06/11/2017 09:16:10 81.35, 89.44 61.32 06/11/2017 09:15:22 81.35, 89.37 61.29 1.03 48
3 06/14/2017 03:59:50 -81.34, -11.96 118.93 06/14/2017 04:00:10 -81.35, -11.78 118.89 3.29 20
4 06/14/2017 04:50:30 81.35, 155.78 61.13 06/14/2017 04:49:36 81.36, 155.95 61.13 3.10 54
5 06/16/2017 23:34:11 -81.34, 54.38 119.06 06/16/2017 23:34:26 -81.34, 54.42 119.05 0.73 15
6 06/17/2017 00:24:51 81.35,-137.90 60.99 06/17/2017 00:23:52 81.34,-137.88 60.96 0.59 59
7 06/19/2017 19:08:31 -81.35, 121.10 119.09 06/19/2017 19:08:41 -81.35, 120.98 119.10 2.01 10
8 06/19/2017 19:59:11 81.35, -71.21 60.96 06/19/2017 19:58:07 81.35, -71.34 60.91 2.19 64
9 06/22/2017 14:42:51 -81.35,-172.59 119.12 06/22/2017 14:42:55 -81.35,-172.48 119.10 2.00 4




NCC Satellite Simultaneous Nadir Overpasses (SNOs) Prediction Service
